Location: Burjasot
(39.5167°N, 0.4167°W)
Time: 07:14:41
(UTC+02:00)

ISS - Visible Passes

Search period start: 28 May 2018 00:00
Search period end: 07 June 2018 00:00
Orbit: 402 x 407 km, 51.6° (Epoch: 28 May)

Date Brightness Start Highest point End Pass type
(mag) Time Alt. Az. Time Alt. Az. Time Alt. Az.
28 May -0.9 01:06:23 10° NNW 01:08:21 16° NNE 01:08:21 16° NNE visible
28 May -0.5 22:37:23 10° NNW 22:38:19 11° N 22:39:15 10° N visible
29 May -0.7 00:14:31 10° NNW 00:15:57 12° NNE 00:17:25 10° NE visible
29 May -0.6 01:50:03 10° NW 01:50:20 12° NW 01:50:20 12° NW visible
29 May -0.6 23:22:38 10° N 23:23:24 11° N 23:24:10 10° NNE visible
30 May -1.2 00:58:02 10° NNW 00:59:43 21° N 00:59:43 21° N visible
31 May -1.3 00:06:04 10° NNW 00:08:21 17° NNE 00:09:09 16° NE visible
31 May -1.0 23:14:08 10° NNW 23:15:49 13° NNE 23:17:31 10° NE visible
01 Jun -1.4 00:49:44 10° NW 00:51:12 23° NNW 00:51:12 23° NNW visible
01 Jun -0.8 22:22:13 10° N 22:23:14 11° N 22:24:16 10° NNE visible
01 Jun -2.2 23:57:39 10° NW 00:00:34 28° NNE 00:00:40 28° NNE visible
02 Jun -1.5 23:05:38 10° NNW 23:08:06 19° NNE 23:10:09 12° ENE visible
03 Jun -1.4 00:41:36 10° WNW 00:42:47 20° WNW 00:42:47 20° WNW visible
03 Jun -1.1 22:13:39 10° NNW 22:15:33 14° NNE 22:17:28 10° NE visible
03 Jun -3.3 23:49:20 10° NW 23:52:18 57° N 23:52:18 57° N visible
04 Jun -2.5 22:57:11 10° NW 23:00:12 33° NNE 23:01:50 20° E visible
05 Jun -1.1 00:33:49 10° WNW 00:34:28 14° W 00:34:28 14° W visible
05 Jun -1.8 22:05:05 10° NNW 22:07:44 22° NNE 22:10:22 10° ENE visible
05 Jun -3.3 23:41:12 10° WNW 23:44:03 49° WSW 23:44:03 49° WSW visible
06 Jun -3.8 22:48:50 10° NW 22:52:06 76° NE 22:53:39 28° ESE visible
